Exeter, United Kingdom

11:38 PM GMT on February 05, 2016 (GMT +0000)
Exeter

Weather History for EGTE - October, 2012

Change the Weather History Date:

Monday, October 22, 2012

  Actual Average Record
Temperature  
Mean Temperature 55 °F -  
Max Temperature 59 °F 53 °F 62 °F (2006)
Min Temperature 51 °F 41 °F 28 °F (2003)
Degree Days  
Heating Degree Days 10    
Growing Degree Days 5 (Base 50)    
Moisture  
Dew Point 54 °F    
Average Humidity 96    
Maximum Humidity 100    
Minimum Humidity 88    
Precipitation  
Precipitation 0.02 in - - ()
Sea Level Pressure  
Sea Level Pressure 30.10 in    
Wind  
Wind Speed 4 mph ()    
Max Wind Speed 7 mph    
Max Gust Speed -    
Visibility 4.5 miles    
Events Rain    
Averages and records for this station are not official NWS values.
T = Trace of Precipitation, MM = Missing Value Source: Averaged Metar Reports

Daily Weather History Graph

Daily Weather History Graph

Search for Another Location

Airport or City:

Trip Planner

Search our weather history database for the weather conditions in past years. The results will help you decide how hot, cold, wet, or windy it might be!

Date:

Astronomy

Oct. 22, 2012 Rise Set
Actual Time 7:48 AM BST 6:06 PM BST
Civil Twilight 7:15 AM BST 6:40 PM BST
Nautical Twilight 6:36 AM BST 7:18 PM BST
Astronomical Twilight 5:58 AM BST 7:56 PM BST
Moon 2:46 PM BST (10/22) No Moon Set
Length of Visible Light 11h 25m
Length of Day
10h 17m
First Quarter, 53% of the Moon is Illuminated
Oct 22
First Quarter
Oct 29
Full
Nov 7
Last Quarter
Nov 13
New
Nov 20
First Quarter

Hourly Weather History & Observations

Time (BST) Temp. Dew Point Humidity Pressure Visibility Wind Dir Wind Speed Gust Speed Precip Events Conditions
12:20 AM 51.8 °F 50.0 °F 94% 30.04 in 6.2 mi North 6.9 mph - N/A   Mostly Cloudy
12:50 AM 52 °F 52 °F 100%  in - NNE 3.5 mph - -  
1:20 AM 51.8 °F 50.0 °F 94% 30.04 in 6.2 mi NNE 6.9 mph - N/A   Mostly Cloudy
2:20 AM 51.8 °F 50.0 °F 94% 30.04 in 5.0 mi NNE 5.8 mph - N/A Rain Light Rain
2:50 AM 51.8 °F 50.0 °F 94% 30.04 in 5.0 mi North 5.8 mph - N/A Rain Light Rain
3:20 AM 51.8 °F 50.0 °F 94% 30.04 in 6.2 mi North 5.8 mph - N/A   Mostly Cloudy
3:50 AM 52 °F 52 °F 100%  in - NNE 3.5 mph - -  
6:20 AM 51.8 °F 50.0 °F 94% 30.04 in 5.0 mi North 5.8 mph - N/A   Mostly Cloudy
6:50 AM 52 °F 52 °F 100%  in - NNE 4.6 mph - -  
6:50 AM 51.8 °F 51.8 °F 100% 30.04 in 5.0 mi North 5.8 mph - N/A   Mostly Cloudy
7:20 AM 51.8 °F 51.8 °F 100% 30.06 in 5.0 mi North 4.6 mph - N/A   Mostly Cloudy
7:50 AM 51.8 °F 51.8 °F 100% 30.06 in 4.3 mi North 3.5 mph - N/A   Mostly Cloudy
8:20 AM 51.8 °F 51.8 °F 100% 30.06 in 5.6 mi NNE 4.6 mph - N/A   Scattered Clouds
8:50 AM 53.6 °F 51.8 °F 94% 30.06 in 5.0 mi North 4.6 mph - N/A   Mostly Cloudy
9:50 AM 53 °F 53 °F 100%  in - NNE 3.5 mph - -  
9:50 AM 53.6 °F 51.8 °F 94% 30.09 in 6.2 mi North 4.6 mph - N/A   Mostly Cloudy
10:20 AM 53.6 °F 51.8 °F 94% 30.09 in 3.7 mi NNE 5.8 mph - N/A   Light Drizzle
10:50 AM 53.6 °F 53.6 °F 100% 30.09 in 5.0 mi NNE 4.6 mph - N/A   Light Drizzle
11:20 AM 53.6 °F 53.6 °F 100% 30.09 in 6.2 mi North 4.6 mph - N/A   Light Drizzle
11:50 AM 55.4 °F 53.6 °F 94% 30.09 in 6.2 mi Variable 3.5 mph - N/A   Light Drizzle
12:50 PM 56 °F 56 °F 99%  in - North 3.5 mph - -  
12:50 PM 55.4 °F 53.6 °F 94% 30.09 in 3.1 mi North 4.6 mph - N/A   Light Drizzle
1:20 PM 55.4 °F 55.4 °F 100% 30.09 in 3.7 mi Variable 3.5 mph - N/A   Mostly Cloudy
1:50 PM 57.2 °F 55.4 °F 94% 30.09 in 6.2 mi NNW 4.6 mph - N/A   Light Drizzle
2:20 PM 57.2 °F 55.4 °F 94% 30.09 in 6.2 mi Variable 3.5 mph - N/A   Mostly Cloudy
2:50 PM 59.0 °F 55.4 °F 88% 30.09 in 6.2 mi Variable 3.5 mph - N/A   Mostly Cloudy
3:20 PM 59.0 °F 55.4 °F 88% 30.12 in 6.2 mi Variable 2.3 mph - N/A   Mostly Cloudy
3:50 PM 59 °F 57 °F 92%  in - ENE 3.5 mph - -  
3:50 PM 59.0 °F 55.4 °F 88% 30.12 in 6.2 mi Variable 2.3 mph - N/A   Mostly Cloudy
4:20 PM 59.0 °F 55.4 °F 88% 30.12 in 6.2 mi East 5.8 mph - N/A   Mostly Cloudy
4:50 PM 59.0 °F 55.4 °F 88% 30.12 in 6.2 mi ENE 5.8 mph - N/A   Mostly Cloudy
5:50 PM 57.2 °F 55.4 °F 94% 30.12 in 3.7 mi NE 6.9 mph - N/A   Light Drizzle
6:20 PM 57.2 °F 55.4 °F 94% 30.12 in 1.2 mi NE 5.8 mph - N/A   Light Drizzle
6:50 PM 56 °F 56 °F 100%  in - ENE 1.2 mph - -  
6:50 PM 55.4 °F 55.4 °F 100% 30.15 in 1.2 mi NE 3.5 mph - N/A   Light Drizzle
7:20 PM 55.4 °F 55.4 °F 100% 30.15 in 6.2 mi NNE 4.6 mph - N/A   Light Drizzle
7:50 PM 55.4 °F 55.4 °F 100% 30.15 in 1.6 mi NNE 3.5 mph - N/A   Light Drizzle
8:20 PM 55.4 °F 55.4 °F 100% 30.15 in 1.9 mi NNE 3.5 mph - N/A   Light Drizzle
9:20 PM 55.4 °F 55.4 °F 100% 30.18 in 1.9 mi NNE 2.3 mph - N/A   Light Drizzle
9:50 PM 56 °F 56 °F 98%  in - NE 2.3 mph - -  
9:50 PM 55.4 °F 55.4 °F 100% 30.18 in 2.5 mi Variable 2.3 mph - N/A   Mostly Cloudy
10:20 PM 55.4 °F 55.4 °F 100% 30.18 in 2.5 mi North 3.5 mph - N/A   Light Drizzle
10:50 PM 55.4 °F 55.4 °F 100% 30.18 in 1.9 mi North 2.3 mph - N/A   Light Drizzle
11:20 PM 55.4 °F 55.4 °F 100% 30.18 in 2.5 mi NNW 2.3 mph - N/A   Light Drizzle
11:50 PM 55.4 °F 55.4 °F 100% 30.18 in 2.5 mi NNW 2.3 mph - N/A Rain Light Rain